Location: Spring Creek
(38.2870°N, 100.2160°W)
Time: 03:43:58
(UTC+00:00)

Cosmos 44 Rocket - Pass Details

Date: 08 May 2021
Orbit: 636 x 753 km, 65.1° (Epoch: 21 June)

Event Time Altitude Azimuth Distance (km) Brightness Sun altitude
Rises 08:15:23 0° 333° (NNW) 3,208 7.2 -30.0°
Reaches altitude 10° 08:17:51 10° 338° (NNW) 2,275 6.4 -29.7°
Maximum altitude 08:22:59 56° 56° (NE) 880 3.9 -29.2°
Enters shadow 08:23:18 55° 72° (ENE) 888 3.9 -29.2°
